Location: Glencliff
(36.1226°N, 86.7183°W)
Time: 09:56:34
(UTC+00:00)

Terra - Pass Details

Date: 25 August 2019
Orbit: 701 x 703 km, 98.2° (Epoch: 18 September)

Event Time Altitude Azimuth Distance (km) Brightness Sun altitude
Exits shadow 02:45:26 14° 40° (NE) 1,902 4.0 -26.1°
Drops below altitude 10° 02:46:41 10° 26° (NNE) 2,175 4.5 -26.3°
Sets 02:49:37 0° 7° (N) 3,097 5.6 -26.8°
